This demonstration page uses our WeatherBlox Daily Observations layout. Learn more.

Left ArrowRight Arrow

Hourly Observations for January 4, 2017

Temp ( °F °C ) Dew Point ( °F °C ) Humidity (%) Winds ( mph kmh ) Pressure ( in mb ) Visibility ( mi km ) Precip ( " mm )
12:15 am 00:15 Cloudy 34 1 34 1 100 100 W 22 35 29.88 1012 2 3.21868 N/A
12:35 am 00:35 Cloudy 32 0 32 0 100 100 W 21 33 29.91 1013 2.5 4.02335 N/A
12:55 am 00:55 Cloudy 32 0 30 -1 93 93 WNW 18 30 29.91 1013 5 8.0467 N/A
1:15 am 01:15 Cloudy 32 0 30 -1 93 93 WNW 18 30 29.91 1013 7 11.26538 N/A
1:34 am 01:34 Cloudy 30 -1 30 -1 100 100 WNW 18 30 29.94 1014 7 11.26538 N/A
1:55 am 01:55 Cloudy 30 -1 27 -3 86 86 WNW 22 35 29.94 1014 10 16.0934 N/A
2:15 am 02:15 Cloudy 30 -1 27 -3 86 86 WNW 16 26 29.94 1014 10 16.0934 N/A
2:34 am 02:34 Cloudy 28 -2 25 -4 86 86 W 21 33 29.97 1015 10 16.0934 N/A
2:55 am 02:55 Mostly Cloudy 27 -3 23 -5 86 86 WNW 23 37 29.97 1015 10 16.0934 N/A
3:14 am 03:14 Partly Cloudy 27 -3 23 -5 86 86 W 23 37 30 1016 10 16.0934 N/A
3:35 am 03:35 Mostly Cloudy 25 -4 21 -6 86 86 W 20 31 30 1016 10 16.0934 N/A
3:55 am 03:55 Partly Cloudy 25 -4 19 -7 80 80 W 15 24 30 1016 10 16.0934 N/A
4:15 am 04:15 Partly Cloudy 23 -5 19 -7 86 86 W 17 28 30 1016 10 16.0934 N/A
4:35 am 04:35 Clear 23 -5 18 -8 80 80 WNW 17 28 30 1016 10 16.0934 N/A
4:54 am 04:54 Clear 23 -5 18 -8 80 80 WNW 17 28 30 1016 10 16.0934 N/A
5:15 am 05:15 Clear 21 -6 16 -9 80 80 WNW 16 26 30.06 1018 10 16.0934 N/A
5:35 am 05:35 Clear 21 -6 16 -9 80 80 W 21 33 30.06 1018 10 16.0934 N/A
5:55 am 05:55 Clear 21 -6 16 -9 80 80 WNW 16 26 30.06 1018 10 16.0934 N/A
6:15 am 06:15 Clear 19 -7 14 -10 79 79 WNW 20 31 30.06 1018 10 16.0934 N/A
6:34 am 06:34 Clear 19 -7 14 -10 79 79 WNW 15 24 30.06 1018 10 16.0934 N/A
6:55 am 06:55 Clear 19 -7 14 -10 79 79 WNW 14 22 30.09 1019 10 16.0934 N/A
7:15 am 07:15 Clear 19 -7 14 -10 79 79 W 15 24 30.09 1019 10 16.0934 N/A
7:34 am 07:34 Clear 19 -7 12 -11 73 73 WNW 17 28 30.09 1019 10 16.0934 N/A
7:55 am 07:55 Clear 18 -8 12 -11 79 79 WNW 17 28 30.09 1019 10 16.0934 N/A
8:14 am 08:14 Sunny 18 -8 12 -11 79 79 WNW 18 30 30.12 1020 10 16.0934 N/A
8:35 am 08:35 Sunny 18 -8 12 -11 79 79 W 17 28 30.12 1020 10 16.0934 N/A
8:54 am 08:54 Sunny 18 -8 10 -12 73 73 W 18 30 30.12 1020 10 16.0934 N/A
9:15 am 09:15 Sunny 18 -8 12 -11 79 79 WNW 15 24 30.12 1020 10 16.0934 N/A
9:34 am 09:34 Sunny 18 -8 10 -12 73 73 WNW 22 35 30.12 1020 10 16.0934 N/A
9:55 am 09:55 Sunny 19 -7 12 -11 73 73 W 18 30 30.15 1021 10 16.0934 N/A
10:15 am 10:15 Sunny 19 -7 12 -11 73 73 WNW 23 37 30.15 1021 10 16.0934 N/A
10:35 am 10:35 Sunny 19 -7 10 -12 68 68 W 22 35 30.15 1021 10 16.0934 N/A
10:55 am 10:55 Sunny 21 -6 12 -11 68 68 W 18 30 30.15 1021 10 16.0934 N/A
11:14 am 11:14 Sunny 21 -6 12 -11 68 68 W 18 30 30.15 1021 10 16.0934 N/A
11:35 am 11:35 Sunny 21 -6 12 -11 68 68 W 20 31 30.15 1021 10 16.0934 N/A
11:54 am 11:54 Sunny 21 -6 12 -11 68 68 W 18 30 30.15 1021 10 16.0934 N/A
12:15 pm 12:15 Sunny 23 -5 12 -11 63 63 WNW 20 31 30.15 1021 10 16.0934 N/A
12:34 pm 12:34 Sunny 23 -5 12 -11 63 63 W 20 31 30.15 1021 10 16.0934 N/A
12:55 pm 12:55 Sunny 23 -5 12 -11 63 63 WNW 18 30 30.09 1019 10 16.0934 N/A
1:15 pm 13:15 Sunny 23 -5 12 -11 63 63 WNW 20 31 30.09 1019 10 16.0934 N/A
1:34 pm 13:34 Sunny 23 -5 12 -11 63 63 W 18 30 30.09 1019 10 16.0934 N/A
1:55 pm 13:55 Sunny 23 -5 12 -11 63 63 W 20 31 30.09 1019 10 16.0934 N/A
2:14 pm 14:14 Sunny 25 -4 12 -11 59 59 W 21 33 30.09 1019 10 16.0934 N/A
2:35 pm 14:35 Partly Cloudy 25 -4 12 -11 59 59 W 21 33 30.09 1019 10 16.0934 N/A
2:55 pm 14:55 Sunny 25 -4 10 -12 54 54 W 21 33 30.09 1019 10 16.0934 N/A
3:15 pm 15:15 Partly Cloudy 25 -4 12 -11 59 59 W 16 26 30.09 1019 10 16.0934 N/A
3:35 pm 15:35 Partly Cloudy 23 -5 12 -11 63 63 W 21 33 30.09 1019 10 16.0934 N/A
3:55 pm 15:55 Sunny 23 -5 10 -12 58 58 W 17 28 30.09 1019 10 16.0934 N/A
4:15 pm 16:15 Sunny 23 -5 12 -11 63 63 W 18 30 30.09 1019 10 16.0934 N/A
4:34 pm 16:34 Sunny 23 -5 10 -12 58 58 W 20 31 30.09 1019 10 16.0934 N/A
4:55 pm 16:55 Sunny 21 -6 10 -12 63 63 W 16 26 30.12 1020 10 16.0934 N/A
5:15 pm 17:15 Sunny 21 -6 12 -11 68 68 W 15 24 30.12 1020 10 16.0934 N/A
5:34 pm 17:34 Clear 19 -7 10 -12 68 68 W 16 26 30.12 1020 10 16.0934 N/A
5:55 pm 17:55 Clear 19 -7 10 -12 68 68 W 16 26 30.12 1020 10 16.0934 N/A
6:15 pm 18:15 Clear 19 -7 10 -12 68 68 W 17 28 30.12 1020 10 16.0934 N/A
6:35 pm 18:35 Clear 19 -7 10 -12 68 68 W 14 22 30.12 1020 10 16.0934 N/A
6:55 pm 18:55 Clear 19 -7 10 -12 68 68 W 16 26 30.15 1021 10 16.0934 N/A
7:14 pm 19:14 Clear 19 -7 10 -12 68 68 W 15 24 30.15 1021 10 16.0934 N/A
7:35 pm 19:35 Clear 18 -8 10 -12 73 73 W 15 24 30.12 1020 10 16.0934 N/A
7:55 pm 19:55 Clear 18 -8 10 -12 73 73 W 14 22 30.12 1020 10 16.0934 N/A
8:15 pm 20:15 Clear 18 -8 10 -12 73 73 W 10 17 30.12 1020 10 16.0934 N/A
8:35 pm 20:35 Clear 18 -8 10 -12 73 73 W 13 20 30.12 1020 10 16.0934 N/A
8:54 pm 20:54 Clear 18 -8 9 -13 68 68 W 13 20 30.15 1021 10 16.0934 N/A
9:15 pm 21:15 Clear 18 -8 9 -13 68 68 W 9 15 30.12 1020 10 16.0934 N/A
9:35 pm 21:35 Clear 18 -8 9 -13 68 68 W 13 20 30.12 1020 10 16.0934 N/A
9:54 pm 21:54 Clear 18 -8 10 -12 73 73 W 12 19 30.15 1021 10 16.0934 N/A
10:15 pm 22:15 Clear 18 -8 9 -13 68 68 W 16 26 30.15 1021 10 16.0934 N/A
10:34 pm 22:34 Partly Cloudy 18 -8 9 -13 68 68 W 12 19 30.12 1020 10 16.0934 N/A
10:55 pm 22:55 Partly Cloudy 18 -8 9 -13 68 68 W 15 24 30.12 1020 10 16.0934 N/A
11:15 pm 23:15 Partly Cloudy 18 -8 9 -13 68 68 W 14 22 30.15 1021 10 16.0934 N/A
11:34 pm 23:34 Partly Cloudy 18 -8 9 -13 68 68 W 12 19 30.15 1021 10 16.0934 N/A
11:55 pm 23:55 Mostly Cloudy 18 -8 9 -13 68 68 WNW 13 20 30.12 1020 10 16.0934 N/A

Powered by AerisWeather